GFSSE_con_mlcape_057.txt.gz
CAPE
224 237 509 629 920 1513 1216 884 442 372 165 67 77 185 260 276 386 594 610 512 589 568 469 322 141 49 6 0 0 0 70 278 525 681 721 843 919 837 472 173 792 891 1021
337 174 351 550 836 1355 1260 829 515 463 234 121 173 365 277 346 548 715 512 353 288 228 95 3 0 0 0 0 0 0 0 40 141 265 262 343 614 733 823 644 1004 824 737
473 280 556 335 692 1192 1356 923 654 597 378 266 304 463 367 509 562 481 311 228 154 64 0 0 0 0 0 0 0 0 0 0 0 0 379 409 1 760 776 732 666 837 793
696 559 392 370 650 1025 1515 1101 974 825 668 374 459 538 420 607 455 313 237 190 98 42 0 0 0 0 0 0 0 0 0 0 0 0 0 0 0 122 783 966 800 752 825
709 592 466 590 433 927 1555 1286 1125 1019 982 668 676 629 570 657 391 313 230 93 37 0 0 0 0 0 0 0 0 0 0 0 0 0 0 9 32 0 145 637 664 685 708
434 639 919 621 274 828 1284 1591 1249 1194 1186 1016 838 741 621 647 490 328 110 25 21 0 0 0 0 0 0 0 0 0 0 0 0 31 73 0 227 0 23 434 663 1014 721
240 573 1149 397 588 634 1102 1499 1466 1375 1308 1211 1017 859 644 596 426 145 8 0 0 0 0 0 0 0 0 0 0 0 0 0 142 61 176 244 217 77 85 261 459 613 677
216 363 1532 459 765 543 804 1168 1381 1445 1333 1321 1199 998 800 549 250 45 0 0 0 0 0 0 0 0 0 0 0 0 0 0 27 72 113 281 99 0 242 259 576 629 661
266 289 1557 515 853 652 617 873 1179 1262 1272 1167 1105 999 764 412 115 15 0 0 0 0 0 0 0 0 0 0 0 0 0 0 14 79 59 155 311 95 89 528 442 503 530
256 223 893 344 627 666 750 725 805 993 1022 975 895 774 557 239 80 20 0 0 0 0 0 0 0 0 0 0 0 0 0 0 0 5 41 123 102 88 311 396 820 494 310
292 178 576 325 461 358 237 786 627 632 751 795 723 615 312 69 99 72 0 0 0 0 0 0 0 0 0 0 0 0 0 0 0 16 8 49 46 0 72 560 977 907 434
377 192 299 505 478 325 111 405 389 392 406 437 311 338 261 78 72 2 0 0 0 0 6 0 0 0 0 0 0 0 0 0 0 0 0 50 42 0 28 143 780 1103 704
415 237 167 644 789 385 149 295 307 237 283 348 316 387 302 107 111 121 85 41 31 5 0 0 0 0 0 0 0 2 19 0 0 0 0 51 34 5 119 249 577 986 965
205 283 143 633 745 782 220 227 389 129 327 299 338 534 577 314 391 477 194 209 244 53 25 0 12 12 4 0 0 0 0 0 0 0 0 17 0 0 116 473 655 938 1094
17 201 238 337 918 1134 1217 316 387 248 305 294 342 584 589 490 623 722 505 184 164 150 86 145 45 16 24 21 9 2 0 0 0 0 0 0 0 0 71 520 647 918 1386
12 86 193 249 795 1210 1357 1391 797 669 345 423 430 640 1099 819 896 535 519 330 226 104 94 89 128 87 46 17 8 23 34 10 0 0 0 0 0 0 0 78 731 1117 1484
0 10 302 393 414 1252 1614 1570 1331 727 662 604 620 903 1207 1383 876 727 385 379 282 222 318 206 165 115 77 30 40 29 42 68 57 8 0 0 0 0 0 0 22 906 1419
0 0 37 253 369 676 1226 1524 1364 955 824 569 684 682 911 1600 1151 938 463 393 315 210 203 395 333 86 92 133 160 159 202 189 120 139 157 114 93 9 8 0 0 278 951
0 0 268 706 653 1047 1076 1063 1172 914 593 515 450 582 862 1079 1192 1041 759 458 432 153 239 385 267 124 230 261 248 384 625 626 516 415 439 485 515 404 278 121 45 158 648
0 0 3 286 367 354 1097 1187 872 705 518 315 179 209 183 737 881 1008 693 514 246 226 211 359 250 346 432 526 598 681 931 909 798 891 860 896 922 1053 1143 894 651 863 744
0 0 0 4 1034 66 317 722 1032 593 423 302 244 203 266 460 651 692 663 371 268 97 458 579 536 474 804 1012 1164 1055 991 1275 1371 1343 1287 1296 1304 1339 1029 792 666 1017 1145
0 0 0 0 0 795 581 310 601 616 265 172 167 101 199 249 611 529 319 153 173 324 791 888 684 944 1365 1380 1362 914 351 512 1422 1597 1593 1514 1506 1299 1022 1055 1412 1428 1554
0 0 0 0 1 0 304 1486 1770 1821 1869 1316 638 235 306 358 558 239 399 19 211 500 1048 1274 1280 1581 1281 1405 1685 1214 218 89 303 1804 1858 1409 1442 1299 1652 1622 1468 1283 1432
0 0 0 0 0 9 10 12 301 306 570 1253 1899 1706 1044 1094 978 779 393 267 322 1243 1472 1819 2133 2131 2073 1352 1443 1889 1738 1480 745 462 1470 1453 1349 1384 1789 1387 1338 1365 1484
0 0 0 0 0 0 33 25 0 89 557 338 31 236 1714 1944 1557 1032 1027 1131 1586 1934 2121 2140 2577 2711 2153 1853 968 1484 1545 1587 1798 1811 1303 1114 1319 1064 1254 1682 1284 1301 1258
0 0 0 0 0 0 0 2 31 27 96 247 406 343 377 472 774 434 2094 2264 2540 2792 2699 2849 2785 2905 2459 2155 1880 1010 1035 1002 1119 1356 1352 1394 1221 1021 827 929 958 1019 997

GFSSE_con_mlcape_060.txt.gz
CAPE
87 443 415 452 1044 1236 991 709 405 118 99 104 98 144 149 245 373 395 444 576 764 832 798 557 157 0 0 0 0 0 0 86 158 176 341 565 565 476 433 821 1092 936 1102
174 571 511 537 839 1149 999 773 384 157 115 130 185 190 205 433 571 474 391 396 431 267 113 6 0 0 0 0 0 0 0 4 24 102 199 331 135 438 537 771 870 767 649
200 679 542 704 650 1130 1068 726 396 217 129 119 238 163 263 518 536 370 203 174 105 0 0 0 0 0 0 0 0 0 0 0 0 88 438 138 0 100 310 686 733 713 602
385 499 759 792 566 965 1091 747 472 369 240 194 288 212 392 529 434 258 120 89 2 0 0 0 0 0 0 0 0 0 0 0 0 0 15 549 0 10 137 480 601 555 795
654 366 897 1025 779 754 1117 914 691 493 382 278 356 348 545 499 297 152 96 4 0 0 0 0 0 0 0 0 0 0 0 0 0 0 0 25 8 12 50 282 528 551 702
978 448 1105 919 1140 631 938 1188 1024 819 582 422 530 521 618 511 179 96 68 0 0 0 0 0 0 0 0 0 0 0 0 0 0 0 17 0 83 21 48 700 681 878 587
1125 590 963 731 1095 557 972 1124 1421 1214 965 650 720 694 696 555 218 96 48 0 0 0 0 0 0 0 0 0 0 0 0 0 3 203 263 153 193 31 37 91 124 202 357
739 875 1254 500 1047 780 876 917 1329 1453 1372 1106 998 890 775 640 395 136 0 0 0 0 0 0 0 0 0 0 0 0 0 0 0 46 137 320 128 68 83 120 229 293 351
414 1073 1366 480 1132 1267 746 890 1072 1381 1446 1383 1246 1026 900 694 426 111 0 0 0 0 0 0 0 0 0 0 0 0 0 0 0 1 92 215 94 61 49 298 247 485 434
232 924 1668 650 914 1505 1207 963 960 1138 1281 1284 1259 1067 902 649 342 53 0 0 0 0 0 0 0 0 0 0 0 0 0 0 0 0 0 123 178 207 126 102 541 495 406
327 632 1390 535 863 924 1259 1333 1040 1087 1106 1107 1006 882 643 498 185 65 0 0 0 0 0 0 0 0 0 0 0 0 0 0 0 0 0 142 81 80 65 134 518 862 595
449 276 735 434 643 565 408 1145 1075 1140 1061 915 854 758 473 168 114 2 0 0 0 0 0 0 0 0 0 0 0 0 0 0 0 0 0 56 58 24 0 4 441 998 1090
99 265 671 537 578 467 259 907 636 697 726 689 621 631 344 161 156 50 0 0 0 0 0 0 0 0 0 0 0 0 0 0 0 0 0 0 0 0 0 0 40 565 1170
53 193 720 713 716 577 339 847 422 503 423 577 387 513 599 214 94 248 48 29 36 42 0 0 0 3 0 0 0 0 9 24 6 0 32 4 0 0 0 0 64 487 944
49 235 915 1108 1161 605 921 658 613 316 482 588 616 675 817 306 479 308 726 281 471 256 79 28 0 76 62 64 70 51 26 14 12 1 0 31 0 0 0 0 137 560 1062
20 181 322 953 1199 1011 854 1347 1654 295 539 490 656 686 650 1039 283 973 689 835 491 568 324 198 177 150 189 147 155 143 89 59 26 37 10 8 9 0 0 0 17 388 952
10 69 251 837 1094 1094 755 1428 1562 1399 529 555 510 815 902 798 1158 792 967 573 583 362 395 328 378 503 220 188 166 129 147 110 42 71 88 35 7 6 0 0 0 32 698
0 2 35 396 1437 1379 1102 908 1187 1499 1154 1043 664 1261 1388 1086 1346 1602 956 785 660 594 538 474 331 252 221 137 113 143 156 114 100 186 182 145 92 89 186 39 0 0 109
0 34 4 433 977 1087 1517 1141 1228 1318 1488 1254 1315 863 1466 1798 1342 1164 1334 839 895 712 436 412 676 545 375 252 215 366 364 418 663 575 308 378 309 268 314 502 261 39 52
0 1 179 730 1280 1047 955 1115 914 1299 1243 943 860 739 967 1291 1657 1229 1080 1349 1060 649 397 312 575 614 443 360 642 554 632 771 1064 916 856 921 752 752 816 805 945 502 225
0 0 4 345 735 1401 1308 1087 985 948 740 531 573 399 426 416 1115 1538 1560 1201 1041 612 359 386 327 265 363 908 600 1010 1035 1087 1248 1143 1344 1235 1122 1003 1045 1515 1247 879 933
0 0 29 22 533 777 755 1003 1004 915 1203 887 620 517 347 436 624 1127 1233 1117 705 382 144 131 458 451 740 720 1366 1431 1110 778 1325 1363 1301 1393 1481 1369 1407 1294 998 800 1241
0 0 0 27 64 475 1468 750 441 756 1077 936 598 358 281 230 159 578 1195 761 485 292 44 443 918 670 378 1363 1609 1526 856 195 624 1753 1478 1537 1721 1730 1480 1125 1422 1461 1419
0 0 0 0 2 34 53 794 1219 996 591 331 669 1443 672 495 465 559 497 603 333 207 357 251 1289 1100 1095 877 2084 1917 1749 1601 853 686 2011 1694 1669 1504 1392 1320 1160 1277 1465
0 0 0 0 0 0 70 86 137 534 679 306 315 398 1087 460 1327 718 757 812 582 608 644 937 1191 1824 1987 2123 1936 2136 2009 1755 1463 1548 1220 1332 1286 1331 1598 1522 1378 1517 1411
0 0 0 0 0 0 0 0 38 27 218 640 598 141 59 102 11 1 864 1000 661 291 177 1294 1819 2075 2720 2738 2387 1973 1692 1313 1477 1612 1502 1232 1196 1085 1040 1296 1109 1210 1099

GFSSE_con_mlcape_063.txt.gz
CAPE
124 1211 1430 1011 959 861 615 336 133 14 0 0 0 5 17 29 71 102 200 376 629 779 643 245 2 0 0 0 0 0 0 0 0 33 107 151 190 205 583 864 1019 646 839
64 1163 1438 1094 842 851 694 359 119 14 11 3 8 67 91 145 145 141 206 299 289 207 58 0 0 0 0 0 0 0 0 0 32 96 44 48 93 157 558 786 444 458 438
34 563 1555 1179 949 902 728 317 74 59 57 27 84 96 133 219 185 118 55 25 0 0 0 0 0 0 0 0 0 0 0 0 0 272 341 85 2 37 298 526 586 324 519
1 292 1363 1435 1099 901 713 334 152 95 113 121 127 97 235 276 191 43 0 0 0 0 0 0 0 0 0 0 0 0 0 0 0 0 71 373 18 12 60 292 433 526 731
5 174 988 1563 1129 841 686 387 233 181 183 215 185 191 301 199 100 0 0 0 0 0 0 0 0 0 0 0 0 0 0 0 0 0 0 0 0 12 19 105 206 315 714
6 109 807 1512 1306 820 672 395 414 355 272 341 315 291 334 129 58 4 0 0 0 0 0 0 0 0 0 0 0 0 0 0 0 2 39 14 0 18 52 586 806 572 449
73 198 529 1194 1419 995 724 615 577 644 409 477 478 421 445 157 67 22 0 0 0 0 0 0 0 0 0 0 0 0 0 0 0 13 59 40 25 13 22 42 68 93 166
427 404 291 1065 1370 1270 858 836 825 890 660 653 647 566 558 273 110 39 0 0 0 0 0 0 0 0 0 0 0 0 0 0 0 0 0 99 41 29 26 31 78 118 121
884 656 160 792 1236 1427 1102 946 1015 1010 995 857 855 733 624 440 215 48 0 0 0 0 0 0 0 0 0 0 0 0 0 0 0 0 0 0 95 91 70 36 79 178 158
1107 915 262 325 1151 1303 1522 1156 1110 1118 1192 1152 1045 889 685 522 276 76 0 0 0 0 0 0 0 0 0 0 0 0 0 0 0 0 0 0 40 108 131 89 84 164 291
1141 868 556 231 783 1054 1443 1528 1212 1191 1179 1155 1162 944 711 385 234 86 0 0 0 0 0 0 0 0 0 0 0 0 0 0 0 0 0 0 1 194 143 65 116 245 390
1113 1016 666 249 330 910 1209 1572 1309 1240 1151 1076 1009 869 556 263 115 43 0 0 0 0 0 0 0 0 0 0 0 0 0 0 0 0 0 0 3 328 190 56 43 270 609
0 378 664 352 169 436 1116 899 1191 1131 977 929 797 541 373 176 112 52 0 0 0 0 0 0 0 0 0 0 0 0 0 0 0 0 0 0 71 107 61 0 7 186 638
10 158 549 644 160 209 824 664 658 869 772 645 590 387 200 66 11 85 14 0 0 0 0 0 0 0 0 0 0 0 0 0 0 0 0 26 37 35 36 0 0 13 202
7 148 532 698 431 213 682 495 325 284 440 376 333 409 168 41 1 107 124 20 6 0 22 14 0 0 2 16 21 7 9 0 11 7 13 110 46 28 0 14 35 69 239
0 290 565 808 712 515 722 688 312 297 217 291 265 336 437 91 19 79 328 233 129 165 202 91 26 9 40 56 72 65 66 68 64 55 56 104 169 80 56 75 108 153 424
0 141 1009 1115 1033 729 1410 1557 1301 345 452 353 381 379 386 613 135 289 365 282 589 747 497 315 196 183 176 267 224 155 97 98 118 88 67 91 89 123 60 63 84 169 407
0 17 263 1313 1457 929 979 1077 1178 1282 954 407 450 561 539 432 748 334 476 866 540 394 420 373 341 332 235 203 162 145 73 73 120 101 96 153 146 127 150 175 210 214 312
3 0 2 407 1592 1291 1113 857 887 971 1159 1213 675 976 848 673 666 1139 1093 898 842 624 488 478 439 361 216 122 167 170 120 194 235 189 287 299 239 198 183 246 374 410 395
0 0 0 460 1468 1680 1350 681 432 1164 1003 1053 1009 1095 1668 1292 912 988 1092 1028 948 750 703 449 313 333 387 294 311 266 379 484 489 412 558 556 488 434 368 329 439 654 593
0 0 0 0 712 2080 1651 996 880 723 967 975 848 789 775 1170 1798 1212 975 957 1018 807 551 433 283 257 193 377 208 165 272 454 676 981 937 912 887 794 685 694 675 722 740
0 0 0 0 89 1158 1773 1537 1032 836 827 661 773 681 655 494 574 1429 1272 972 940 846 570 420 260 129 241 277 252 818 734 656 964 993 1038 1290 1177 1141 1095 951 1106 1155 803
0 0 1 31 53 201 1317 1397 1090 1195 794 674 559 479 210 297 272 352 972 1244 960 650 437 184 150 23 21 440 669 551 594 506 807 882 855 1251 1267 1164 1278 1339 1185 1090 799
0 0 0 2 28 101 101 1167 1264 768 818 688 839 801 695 564 372 398 609 891 724 679 425 187 256 197 497 410 788 786 968 834 947 929 1224 1537 1406 1410 1576 1288 952 1078 1129
0 0 0 0 0 0 7 114 778 1219 753 895 853 874 775 633 508 499 464 600 654 488 273 312 226 332 980 1116 1144 735 566 943 1480 1542 1153 936 1477 1428 1290 1248 1135 1021 966
0 0 0 0 0 0 0 0 68 180 408 794 837 602 489 635 669 747 854 721 571 498 557 539 552 1033 845 455 342 18 0 1 1022 1531 1184 988 1098 977 1070 1359 1283 1052 1066

GFSSE_con_mlcape_069.txt.gz
CAPE
285 892 1124 727 243 108 127 52 61 198 345 472 612 584 491 460 271 207 183 244 373 357 271 39 0 0 0 0 0 0 0 70 258 303 160 181 499 678 961 803 309 242 397
373 1042 1218 783 292 39 78 82 76 119 265 401 435 415 340 262 232 214 256 255 236 187 2 0 0 0 0 0 0 0 0 44 59 51 81 167 446 792 810 392 141 136 204
366 1001 1109 722 309 31 12 15 22 73 142 167 166 162 169 158 195 227 190 112 52 0 0 0 0 0 0 0 0 0 0 36 88 203 46 0 58 379 470 175 103 196 171
508 1126 1079 728 362 102 14 0 0 10 10 39 92 114 117 90 78 29 1 0 0 0 0 0 0 0 0 0 0 0 0 0 0 24 28 66 35 117 286 187 281 367 363
711 1091 1173 783 478 199 19 4 0 6 12 26 60 65 51 30 1 0 0 0 0 0 0 0 0 0 0 0 0 0 0 0 0 0 0 0 0 49 95 62 192 342 605
738 1025 1358 868 535 308 116 43 0 5 28 25 56 73 47 0 0 0 0 0 0 0 0 0 0 0 0 0 0 0 0 0 0 0 0 0 0 0 51 105 90 244 311
439 971 1355 934 574 357 237 150 84 79 58 54 91 89 53 6 0 0 0 0 0 0 0 0 0 0 0 0 0 0 0 0 0 0 0 0 0 0 18 267 133 107 89
325 1019 1176 1113 689 380 356 304 260 170 82 176 92 97 88 27 22 21 4 0 0 0 0 0 0 0 0 0 0 0 0 0 0 0 0 0 0 0 10 234 68 59 25
447 858 1201 1307 988 536 418 423 367 270 198 136 193 103 92 52 45 24 3 0 0 0 0 0 0 0 0 0 0 0 0 0 0 0 0 0 0 0 26 131 34 47 0
565 730 980 1153 1196 758 539 494 464 422 340 187 138 130 111 95 75 26 0 0 0 0 0 0 0 0 0 0 0 0 0 0 0 0 0 0 0 0 25 261 63 73 45
455 870 1128 1160 1125 817 701 655 533 557 579 406 300 164 144 131 103 63 0 0 0 0 0 0 0 0 0 0 0 0 0 0 0 0 0 0 0 0 0 287 358 149 126
241 501 880 1112 1105 1007 828 844 680 658 749 684 568 455 211 104 89 68 12 0 0 0 0 0 0 0 0 0 0 0 0 0 0 0 0 0 0 0 0 103 697 271 132
559 365 829 1077 1022 944 1012 1002 802 890 820 806 697 541 274 169 109 93 21 1 0 0 0 0 0 0 0 0 0 0 0 0 0 0 0 0 0 5 40 170 556 491 159
897 608 730 920 887 1023 987 1043 1003 1028 847 839 806 621 246 114 66 15 0 0 0 0 0 0 0 0 0 0 0 0 0 0 0 0 0 1 17 33 53 206 547 459 137
956 936 758 952 858 1009 1044 934 951 1052 1065 980 849 693 456 159 24 7 0 0 0 0 0 0 0 0 0 0 0 0 0 0 0 0 0 18 38 55 105 349 457 516 166
805 1040 1023 761 756 766 920 814 884 1128 1173 898 732 722 561 270 55 10 0 0 0 0 0 0 0 4 26 15 4 5 0 0 0 18 18 26 58 79 134 210 272 328 247
206 716 1089 1036 850 618 657 740 759 827 837 790 804 802 705 402 109 13 0 0 0 3 2 13 33 75 133 80 112 86 64 62 94 74 62 44 29 93 141 134 145 171 363
0 283 723 1110 1024 726 988 787 629 621 643 638 748 697 589 494 264 117 9 5 11 48 75 158 209 468 380 286 260 224 142 81 87 93 65 52 91 125 159 185 195 214 201
0 52 502 921 968 844 895 829 685 551 535 627 639 591 548 469 199 130 46 18 12 44 199 379 464 394 358 259 290 212 198 163 65 64 93 141 117 152 166 181 250 253 276
0 176 492 812 1025 979 867 921 857 575 503 293 316 381 484 520 233 92 35 10 56 172 305 429 524 448 406 392 307 317 244 99 6 88 212 284 343 366 347 272 247 274 310
0 261 816 975 1202 1122 1096 1028 975 1062 691 512 137 231 502 529 477 349 114 150 153 155 258 520 666 601 452 348 259 167 42 0 17 200 278 295 232 364 523 515 446 227 206
0 420 1032 1437 1737 1439 1361 1364 1333 1339 1156 715 523 600 504 718 646 481 547 636 597 710 809 905 791 670 462 311 202 115 0 12 210 133 269 119 169 226 234 267 506 556 337
11 57 323 915 1313 1846 1802 1543 1465 1229 1021 1128 970 933 955 1004 828 796 786 822 848 1022 1103 1109 961 616 353 275 275 85 4 1 92 130 146 80 19 11 12 289 550 829 676
0 0 0 4 164 768 1384 1773 1644 1405 1261 1120 947 818 940 825 837 1319 1127 1035 926 974 1058 725 808 675 464 359 356 163 75 73 267 75 7 1 0 0 0 30 521 778 902
0 0 0 0 0 0 29 551 990 1234 1217 948 839 901 775 730 795 743 873 1208 1165 1176 637 191 154 632 513 483 339 268 259 322 358 296 0 0 0 0 2 17 298 628 839
0 0 0 0 0 0 0 0 0 0 81 624 872 982 778 772 736 597 591 585 842 1011 790 504 221 18 50 459 476 398 324 468 289 34 0 0 0 12 81 127 446 608 794

GFSSE_con_mlcape_072.txt.gz
CAPE
12 912 1345 1106 592 271 484 831 901 761 705 579 364 104 149 154 142 235 204 269 354 401 310 30 0 0 0 0 0 0 0 24 139 115 179 393 618 755 783 183 77 107 205
78 941 1160 891 587 278 315 528 725 682 670 656 462 458 440 292 191 234 227 207 263 240 36 0 0 0 0 0 0 0 0 64 25 28 43 89 503 677 513 152 35 76 111
139 878 1058 762 574 356 202 245 451 675 736 662 517 529 458 243 222 217 190 255 198 14 0 0 0 0 0 0 0 0 0 3 48 3 0 0 83 468 302 127 94 64 26
406 998 990 740 569 403 159 95 241 389 525 580 529 465 284 230 222 218 223 108 2 0 0 0 0 0 0 0 0 0 0 17 29 64 13 18 23 136 362 217 168 100 53
602 1004 970 716 486 377 230 91 91 235 353 378 371 287 204 249 276 192 31 0 0 0 0 0 0 0 0 0 0 0 0 0 0 0 0 0 0 42 186 352 318 238 179
598 850 1139 713 414 351 220 79 56 77 112 172 165 185 211 199 80 14 0 0 0 0 0 0 0 0 0 0 0 0 0 0 0 0 0 0 0 0 34 194 198 247 216
596 963 1329 772 370 252 248 161 75 109 129 158 181 200 180 76 24 0 0 0 0 0 0 0 0 0 0 0 0 0 0 0 0 0 0 0 0 0 0 164 315 188 106
333 926 1218 970 478 188 196 192 135 103 121 122 194 161 102 30 1 0 0 0 0 0 0 0 0 0 0 0 0 0 0 0 0 0 0 0 0 0 9 73 218 198 82
698 1116 1144 1075 609 330 227 188 189 152 105 90 118 147 61 0 0 2 0 0 0 0 0 0 0 0 0 0 0 0 0 0 0 0 0 0 0 0 5 161 251 91 66
725 1016 1155 1136 842 513 440 274 229 213 153 88 115 120 26 13 22 12 4 0 0 0 0 0 0 0 0 0 0 0 0 0 0 0 0 0 0 0 0 64 452 137 74
515 828 1068 1116 1033 560 457 481 340 300 241 201 152 138 54 19 39 27 7 0 0 0 0 0 0 0 0 0 0 0 0 0 0 0 0 0 0 0 0 0 194 455 173
129 470 853 1045 1051 753 514 509 457 472 500 419 358 197 96 36 38 32 24 3 0 0 0 0 0 0 0 0 0 0 0 0 0 0 0 0 0 0 7 22 79 327 408
270 496 652 964 1026 936 516 556 515 539 576 494 446 273 130 97 100 71 24 1 0 0 0 0 0 0 0 0 0 0 0 0 0 0 0 0 0 3 34 80 130 242 390
305 381 824 912 1119 1114 818 594 503 516 547 502 596 492 209 94 65 38 8 0 0 0 0 0 0 0 0 0 0 0 0 0 0 0 0 0 0 14 31 40 118 186 365
639 558 797 1057 1114 1062 935 814 668 588 574 622 595 636 444 165 59 60 9 0 0 0 0 0 0 0 0 0 0 0 0 0 0 0 5 2 9 21 40 61 159 285 306
762 838 1028 994 1071 1158 1017 940 769 760 761 654 686 696 596 299 123 59 63 10 10 0 0 0 0 0 0 17 93 41 50 14 15 19 26 25 29 38 57 108 205 386 332
540 893 1095 1041 983 893 948 922 825 757 827 829 836 828 666 527 246 139 22 14 8 4 1 3 4 8 43 122 164 125 115 103 79 67 27 31 52 32 66 154 208 232 276
454 631 921 1229 1042 998 991 1058 938 478 1002 999 1043 862 818 708 543 283 128 87 42 5 18 39 104 172 320 337 296 229 212 132 124 76 13 24 69 68 62 258 290 222 228
182 457 634 1161 1234 1064 1104 1150 1084 952 967 1043 944 873 910 944 752 494 320 126 90 47 32 135 275 398 353 407 288 278 220 231 199 79 1 40 193 188 145 186 250 327 415
12 340 562 895 1170 1223 1167 1154 965 881 911 886 835 807 779 773 794 596 453 291 113 62 15 103 256 380 446 512 391 328 251 148 64 6 6 142 262 229 212 255 220 280 430
0 0 264 611 1002 1148 1118 1131 996 776 715 667 736 720 683 737 665 528 470 334 167 40 62 93 328 528 593 446 368 137 72 28 17 10 102 221 90 165 277 171 194 268 341
0 0 28 400 894 1087 1125 1235 1167 995 772 654 688 608 602 584 530 479 338 197 187 115 124 171 375 629 574 448 357 121 1 42 67 103 136 244 68 86 34 54 266 442 469
0 0 1 359 895 1100 1308 1295 1176 1184 1076 990 896 868 630 539 639 724 677 544 413 322 210 342 664 811 883 460 310 250 64 24 81 84 137 207 126 4 3 6 109 349 540
0 0 58 666 1286 1392 1477 1521 1424 1406 1392 1310 1188 1020 828 740 815 932 792 751 776 824 787 915 1079 832 593 398 368 312 256 120 84 23 114 104 61 1 3 25 74 70 351
0 2 291 1163 1632 1882 1900 1749 1649 1649 1225 1151 1231 1202 1152 1049 1052 1076 1128 1069 853 581 484 760 664 120 211 201 61 154 228 200 285 232 35 154 59 0 6 44 76 186 439
0 0 147 614 1050 1257 1602 1746 1830 1772 1529 1201 1173 1117 1013 908 911 927 911 573 710 554 369 270 450 374 221 169 117 73 120 181 387 169 88 29 8 8 3 122 90 154 318

GFSSE_con_mlcape_075.txt.gz
CAPE
135 880 1205 877 937 1046 1023 932 806 595 495 350 171 77 26 73 122 140 213 386 511 558 281 79 12 32 7 0 0 0 0 12 83 131 279 324 318 679 329 156 62 10 93
451 1151 1182 746 890 1182 1220 1230 1127 782 657 332 134 53 28 91 137 162 219 312 370 375 128 3 0 0 0 0 0 3 35 30 23 48 137 403 735 637 201 49 26 11 26
772 1409 1116 691 769 1222 1358 1283 1198 864 605 392 124 127 133 123 132 194 271 237 197 108 0 0 0 0 0 0 0 2 14 0 0 0 0 0 2 307 170 74 93 49 0
1184 1337 1171 701 594 986 1180 1110 941 809 657 390 300 405 272 173 216 233 186 148 116 0 0 0 0 0 0 0 0 9 45 113 91 13 0 0 0 28 129 112 188 113 32
1256 1396 1214 638 529 636 889 882 798 776 680 517 603 524 351 224 229 170 151 130 21 0 0 0 0 0 0 0 0 0 0 0 0 0 0 0 0 0 127 204 307 232 69
1102 1158 1203 613 482 415 572 713 790 770 670 612 639 539 333 264 175 145 117 28 0 0 0 0 0 0 0 0 0 0 0 0 0 0 0 0 0 0 27 205 176 221 154
997 1039 1162 801 617 400 300 453 528 581 619 647 614 457 302 188 164 127 31 0 0 0 0 0 0 0 0 0 0 0 0 0 0 0 0 0 0 0 0 74 229 215 151
966 1115 1231 848 568 462 317 287 382 395 478 533 478 384 259 189 102 36 0 0 0 0 0 0 0 0 0 0 0 0 0 0 0 0 0 0 0 0 8 69 294 237 103
953 1240 1227 883 691 490 436 284 217 231 276 378 317 291 217 131 23 0 0 0 0 0 0 0 0 0 0 0 0 0 0 0 0 0 0 0 0 0 0 80 246 238 80
914 1161 1144 945 711 562 566 373 230 189 321 421 414 318 150 50 9 0 0 0 0 0 0 0 0 0 0 0 0 0 0 0 0 0 0 0 0 0 0 0 116 324 121
694 1172 1153 1017 859 578 472 544 276 221 246 421 477 377 155 33 10 31 16 19 0 0 0 0 0 0 0 0 0 0 0 0 0 0 0 0 0 0 0 0 2 226 295
308 929 1178 1172 949 704 546 595 442 384 321 337 470 602 297 180 126 70 57 17 17 0 0 0 0 0 0 0 0 0 0 0 0 0 0 0 0 0 3 10 13 105 422
518 841 1078 1293 1172 832 585 765 694 653 610 606 546 599 498 335 271 120 93 78 112 20 0 0 0 0 0 0 0 0 0 0 0 0 0 0 0 4 47 93 71 163 354
481 645 1050 1217 1336 1100 832 747 677 623 722 544 557 510 400 279 269 236 125 128 173 65 10 0 0 0 0 1 14 18 33 36 43 39 38 0 0 0 27 93 148 171 261
571 563 982 1208 1311 1239 1147 864 760 728 717 649 645 705 514 305 259 303 236 185 112 89 24 0 0 0 0 60 134 167 196 193 167 166 146 45 24 22 42 67 138 230 274
802 801 952 1075 1348 1108 1363 1167 963 908 883 873 822 793 582 494 323 265 292 198 105 34 17 0 0 18 64 132 289 330 332 368 324 288 305 306 47 44 55 72 99 341 408
708 1134 1133 1254 1438 1132 1543 1487 1222 1048 953 920 914 1022 807 580 502 318 190 133 128 58 24 6 18 123 187 293 511 594 472 541 441 332 403 304 189 166 75 88 119 227 568
1276 1180 1366 1557 1522 1584 1430 1673 1501 1188 1130 1094 1013 1051 1061 972 807 500 334 218 199 131 65 69 137 223 358 587 631 737 591 562 483 381 413 276 200 586 510 91 180 281 493
917 1237 1229 1644 1671 1651 1620 1671 1587 1533 1360 1112 792 461 597 1282 1103 723 590 485 361 207 90 69 117 274 483 597 654 669 602 546 430 376 133 72 390 836 841 694 186 226 403
82 902 1291 1550 1811 1931 1782 1811 1739 1647 1543 1095 532 293 591 1432 1342 947 914 705 541 260 191 68 173 442 445 483 628 652 616 452 322 239 100 115 434 396 551 843 871 825 390
0 0 829 1204 1483 1827 1637 1550 1338 1184 1466 1400 1255 1087 1248 1275 1503 1439 1295 1033 808 549 281 148 210 79 459 615 594 553 238 181 88 250 123 332 583 181 217 229 493 916 1092
0 0 0 523 1369 1567 1639 1701 1552 1395 1318 1378 1414 1379 1400 1246 1242 1037 1210 1101 841 675 448 236 198 552 726 792 771 344 101 138 214 185 320 355 369 452 76 57 140 270 1222
0 0 0 9 807 1472 1811 1884 1704 1661 1352 1265 1280 1232 1169 1145 1150 1074 973 1009 893 644 507 315 211 382 666 763 678 417 205 97 188 303 161 177 173 347 254 137 137 166 179
0 0 0 3 484 1334 1778 1731 1707 1543 1514 1502 1421 1274 1157 1057 992 928 920 917 1066 1040 757 576 426 423 712 1108 504 485 508 289 79 50 216 190 347 118 156 170 120 58 139
0 0 0 24 516 1402 1760 1805 1906 1949 2112 1946 1746 1560 1425 1455 1259 1005 1045 1143 1206 1347 1316 1099 966 908 741 460 324 285 340 481 428 201 90 85 236 214 164 78 42 134 256
0 0 0 274 652 1606 1810 2015 2039 2020 2079 1998 1998 1856 1948 1857 1648 1546 1702 1726 1508 1558 1373 973 339 124 71 57 45 71 111 281 326 304 203 184 355 255 174 81 110 157 368